Location: Bear Trap Landing
(45.2437°N, 67.7928°W)
Time: 14:09:35
(UTC+00:00)

Envisat - Pass Details

Date: 08 March 2021
Orbit: 764 x 766 km, 98.1° (Epoch: 17 April)

Event Time Altitude Azimuth Distance (km) Brightness Sun altitude
Rises 10:12:44 0° 14° (NNE) 3,244 6.5 -8.5°
Reaches altitude 10° 10:15:03 10° 15° (NNE) 2,313 5.7 -8.1°
Maximum altitude 10:20:10 82° 103° (ESE) 779 3.2 -7.2°
Drops below altitude 10° 10:25:14 10° 191° (SSW) 2,294 5.4 -6.3°
Sets 10:27:31 0° 193° (SSW) 3,216 6.1 -5.9°
